| time (UTC) | temp C | wind direction | speed KPH | gust KPH | rain 1hr cm | rain 24hr cm | rain mn cm | humidity % | barometer mb |
| 20260904221517 | 35 | 89 | 9.7 | 12.9 | 0.00 | 0.00 | 0.00 | 43 | 1014.3 |
| 20260904221017 | 35 | 71 | 0.0 | 14.5 | 0.00 | 0.00 | 0.00 | 43 | 1014.3 |
| 20260904220517 | 35 | 114 | 0.0 | 9.7 | 0.00 | 0.00 | 0.00 | 42 | 1014.3 |
| 20260904220017 | 35 | 80 | 4.8 | 8.0 | 0.00 | 0.00 | 0.00 | 41 | 1014.3 |
| 20260904215517 | 35 | 76 | 4.8 | 6.4 | 0.00 | 0.00 | 0.00 | 41 | 1014.3 |
| 20260904215017 | 35 | 97 | 3.2 | 14.5 | 0.00 | 0.00 | 0.00 | 41 | 1014.2 |
| 20260904214517 | 35 | 61 | 0.0 | 9.7 | 0.00 | 0.00 | 0.00 | 41 | 1014.3 |
| 20260904214017 | 36 | 59 | 0.0 | 11.3 | 0.00 | 0.00 | 0.00 | 42 | 1014.3 |
| 20260904213517 | 36 | 99 | 0.0 | 20.9 | 0.00 | 0.00 | 0.00 | 40 | 1014.3 |
| 20260904213017 | 36 | 100 | 1.6 | 14.5 | 0.00 | 0.00 | 0.00 | 39 | 1014.3 |
| 20260904212517 | 36 | 85 | 3.2 | 14.5 | 0.00 | 0.00 | 0.00 | 39 | 1014.3 |
| 20260904212017 | 36 | 86 | 4.8 | 9.7 | 0.00 | 0.00 | 0.00 | 38 | 1014.3 |
| 20260904211516 | 37 | 27 | 4.8 | 12.9 | 0.00 | 0.00 | 0.00 | 38 | 1014.3 |
| 20260904211017 | 37 | 80 | 6.4 | 14.5 | 0.00 | 0.00 | 0.00 | 38 | 1014.3 |
| 20260904210517 | 37 | 76 | 3.2 | 11.3 | 0.00 | 0.00 | 0.00 | 39 | 1014.3 |
| 20260904210018 | 37 | 99 | 1.6 | 11.3 | 0.00 | 0.00 | 0.00 | 38 | 1014.4 |
| 20260904205517 | 37 | 80 | 6.4 | 12.9 | 0.00 | 0.00 | 0.00 | 38 | 1014.4 |
| 20260904205018 | 37 | 78 | 3.2 | 12.9 | 0.00 | 0.00 | 0.00 | 38 | 1014.4 |
| 20260904204517 | 37 | 42 | 0.0 | 6.4 | 0.00 | 0.00 | 0.00 | 38 | 1014.4 |
| 20260904204017 | 37 | 85 | 6.4 | 19.3 | 0.00 | 0.00 | 0.00 | 38 | 1014.4 |
| 20260904203517 | 37 | 85 | 1.6 | 11.3 | 0.00 | 0.00 | 0.00 | 38 | 1014.4 |
| 20260904203017 | 36 | 95 | 0.0 | 16.1 | 0.00 | 0.00 | 0.00 | 39 | 1014.6 |
| 20260904202517 | 36 | 41 | 9.7 | 17.7 | 0.00 | 0.00 | 0.00 | 39 | 1014.7 |
| 20260904202017 | 36 | 38 | 6.4 | 11.3 | 0.00 | 0.00 | 0.00 | 39 | 1014.7 |
| 20260904201517 | 37 | 82 | 0.0 | 16.1 | 0.00 | 0.00 | 0.00 | 39 | 1014.8 |
| 20260904201017 | 36 | 76 | 1.6 | 14.5 | 0.00 | 0.00 | 0.00 | 39 | 1014.9 |
| 20260904200517 | 36 | 96 | 6.4 | 12.9 | 0.00 | 0.00 | 0.00 | 40 | 1014.9 |
| 20260904200017 | 36 | 73 | 3.2 | 8.0 | 0.00 | 0.00 | 0.00 | 39 | 1015.1 |
| 20260904195517 | 36 | 169 | 3.2 | 9.7 | 0.00 | 0.00 | 0.00 | 41 | 1015.2 |
| 20260904195017 | 35 | 155 | 6.4 | 19.3 | 0.00 | 0.00 | 0.00 | 42 | 1015.2 |
| 20260904194517 | 35 | 82 | 4.8 | 12.9 | 0.00 | 0.00 | 0.00 | 43 | 1015.3 |
| 20260904194017 | 35 | 79 | 8.0 | 9.7 | 0.00 | 0.00 | 0.00 | 44 | 1015.3 |
| 20260904193517 | 35 | 54 | 1.6 | 11.3 | 0.00 | 0.00 | 0.00 | 45 | 1015.4 |
| 20260904193017 | 35 | 93 | 4.8 | 16.1 | 0.00 | 0.00 | 0.00 | 44 | 1015.6 |
| 20260904192518 | 35 | 47 | 6.4 | 11.3 | 0.00 | 0.00 | 0.00 | 42 | 1015.7 |
| 20260904192017 | 35 | 114 | 4.8 | 16.1 | 0.00 | 0.00 | 0.00 | 42 | 1015.8 |
| 20260904191518 | 35 | 90 | 9.7 | 17.7 | 0.00 | 0.00 | 0.00 | 43 | 1016.0 |
| 20260904191017 | 35 | 27 | 3.2 | 9.7 | 0.00 | 0.00 | 0.00 | 45 | 1016.0 |
| 20260904190518 | 35 | 68 | 0.0 | 14.5 | 0.00 | 0.00 | 0.00 | 45 | 1016.1 |
| 20260904190017 | 35 | 92 | 6.4 | 12.9 | 0.00 | 0.00 | 0.00 | 44 | 1016.2 |
| 20260904185517 | 35 | 73 | 3.2 | 14.5 | 0.00 | 0.00 | 0.00 | 45 | 1016.1 |
| 20260904185017 | 35 | 93 | 4.8 | 16.1 | 0.00 | 0.00 | 0.00 | 46 | 1016.3 |
| 20260904184517 | 35 | 92 | 4.8 | 12.9 | 0.00 | 0.00 | 0.00 | 45 | 1016.3 |
| 20260904184017 | 35 | 83 | 8.0 | 12.9 | 0.00 | 0.00 | 0.00 | 46 | 1016.5 |
| 20260904183517 | 35 | 73 | 4.8 | 17.7 | 0.00 | 0.00 | 0.00 | 46 | 1016.5 |
| 20260904183018 | 35 | 59 | 8.0 | 12.9 | 0.00 | 0.00 | 0.00 | 46 | 1016.5 |
| 20260904182517 | 35 | 78 | 1.6 | 17.7 | 0.00 | 0.00 | 0.00 | 46 | 1016.7 |
| 20260904182017 | 35 | 99 | 3.2 | 9.7 | 0.00 | 0.00 | 0.00 | 46 | 1016.7 |
| 20260904181517 | 35 | 102 | 0.0 | 16.1 | 0.00 | 0.00 | 0.00 | 45 | 1016.8 |
| 20260904181017 | 35 | 45 | 9.7 | 11.3 | 0.00 | 0.00 | 0.00 | 45 | 1016.9 |
| 20260904180517 | 35 | 10 | 6.4 | 11.3 | 0.00 | 0.00 | 0.00 | 46 | 1017.0 |
| 20260904180017 | 35 | 96 | 3.2 | 11.3 | 0.00 | 0.00 | 0.00 | 47 | 1017.0 |
| 20260904175518 | 35 | 40 | 4.8 | 16.1 | 0.00 | 0.00 | 0.00 | 46 | 1017.1 |
| 20260904175017 | 35 | 72 | 14.5 | 8.0 | 0.00 | 0.00 | 0.00 | 47 | 1017.1 |
| 20260904174518 | 35 | 65 | 3.2 | 11.3 | 0.00 | 0.00 | 0.00 | 47 | 1017.1 |
| 20260904174017 | 34 | 86 | 4.8 | 9.7 | 0.00 | 0.00 | 0.00 | 47 | 1017.2 |
| 20260904173517 | 35 | 71 | 3.2 | 11.3 | 0.00 | 0.00 | 0.00 | 48 | 1017.3 |
| 20260904173018 | 35 | 172 | 1.6 | 16.1 | 0.00 | 0.00 | 0.00 | 48 | 1017.4 |
| 20260904172517 | 34 | 78 | 9.7 | 11.3 | 0.00 | 0.00 | 0.00 | 48 | 1017.5 |
| 20260904172017 | 34 | 99 | 1.6 | 12.9 | 0.00 | 0.00 | 0.00 | 48 | 1017.5 |
| 20260904171517 | 34 | 85 | 8.0 | 8.0 | 0.00 | 0.00 | 0.00 | 49 | 1017.6 |
| 20260904171017 | 34 | 200 | 4.8 | 12.9 | 0.00 | 0.00 | 0.00 | 48 | 1017.7 |
| 20260904170517 | 34 | 109 | 6.4 | 8.0 | 0.00 | 0.00 | 0.00 | 49 | 1017.6 |
| 20260904170017 | 33 | 37 | 3.2 | 14.5 | 0.00 | 0.00 | 0.00 | 50 | 1017.7 |
| 20260904165517 | 33 | 83 | 3.2 | 11.3 | 0.00 | 0.00 | 0.00 | 51 | 1017.7 |
| 20260904165017 | 33 | 90 | 0.0 | 11.3 | 0.00 | 0.00 | 0.00 | 51 | 1017.7 |
| 20260904164517 | 33 | 1 | 3.2 | 6.4 | 0.00 | 0.00 | 0.00 | 52 | 1017.7 |
| 20260904164017 | 33 | 86 | 6.4 | 12.9 | 0.00 | 0.00 | 0.00 | 51 | 1017.8 |
| 20260904163517 | 33 | 196 | 3.2 | 4.8 | 0.00 | 0.00 | 0.00 | 52 | 1017.9 |
| 20260904163017 | 33 | 71 | 1.6 | 9.7 | 0.00 | 0.00 | 0.00 | 52 | 1018.0 |
| 20260904162517 | 32 | 59 | 4.8 | 8.0 | 0.00 | 0.00 | 0.00 | 54 | 1018.1 |
| 20260904162017 | 32 | 96 | 0.0 | 12.9 | 0.00 | 0.00 | 0.00 | 54 | 1018.1 |
| 20260904161517 | 32 | 88 | 12.9 | 12.9 | 0.00 | 0.00 | 0.00 | 55 | 1018.2 |
| 20260904161017 | 32 | 85 | 0.0 | 11.3 | 0.00 | 0.00 | 0.00 | 57 | 1018.2 |
| 20260904160517 | 32 | 109 | 0.0 | 4.8 | 0.00 | 0.00 | 0.00 | 57 | 1018.3 |
| 20260904160017 | 32 | 25 | 1.6 | 6.4 | 0.00 | 0.00 | 0.00 | 56 | 1018.2 |
| 20260904155517 | 32 | 96 | 3.2 | 11.3 | 0.00 | 0.00 | 0.00 | 56 | 1018.2 |
| 20260904155017 | 32 | 280 | 0.0 | 6.4 | 0.00 | 0.00 | 0.00 | 58 | 1018.1 |
| 20260904154518 | 32 | 0 | 0.0 | 0.0 | 0.00 | 0.00 | 0.00 | 58 | 1018.1 |
| 20260904154017 | 32 | 343 | 0.0 | 0.0 | 0.00 | 0.00 | 0.00 | 58 | 1018.1 |
| 20260904153517 | 31 | 342 | 0.0 | 6.4 | 0.00 | 0.00 | 0.00 | 60 | 1018.0 |
| 20260904153017 | 31 | 335 | 3.2 | 3.2 | 0.00 | 0.00 | 0.00 | 63 | 1018.1 |
| 20260904152517 | 31 | 343 | 0.0 | 0.0 | 0.00 | 0.00 | 0.00 | 63 | 1018.0 |
| 20260904152016 | 31 | 54 | 0.0 | 3.2 | 0.00 | 0.00 | 0.00 | 61 | 1018.0 |
| 20260904151517 | 31 | 56 | 1.6 | 6.4 | 0.00 | 0.00 | 0.00 | 61 | 1018.0 |
| 20260904151017 | 31 | 0 | 0.0 | 0.0 | 0.00 | 0.00 | 0.00 | 61 | 1018.0 |
| 20260904150518 | 31 | 62 | 0.0 | 6.4 | 0.00 | 0.00 | 0.00 | 62 | 1018.0 |
| 20260904150017 | 31 | 95 | 3.2 | 6.4 | 0.00 | 0.00 | 0.00 | 62 | 1017.9 |
| 20260904145517 | 30 | 0 | 0.0 | 0.0 | 0.00 | 0.00 | 0.00 | 63 | 1017.9 |
| 20260904145017 | 30 | 0 | 0.0 | 0.0 | 0.00 | 0.00 | 0.00 | 64 | 1017.8 |
| 20260904144517 | 30 | 72 | 0.0 | 4.8 | 0.00 | 0.00 | 0.00 | 65 | 1017.7 |
| 20260904144017 | 30 | 292 | 1.6 | 3.2 | 0.00 | 0.00 | 0.00 | 65 | 1017.8 |
| 20260904143517 | 30 | 240 | 0.0 | 6.4 | 0.00 | 0.00 | 0.00 | 65 | 1017.8 |
| 20260904143017 | 30 | 0 | 0.0 | 0.0 | 0.00 | 0.00 | 0.00 | 65 | 1017.8 |
| 20260904142517 | 29 | 198 | 0.0 | 4.8 | 0.00 | 0.00 | 0.00 | 68 | 1017.8 |
| 20260904142017 | 29 | 200 | 3.2 | 4.8 | 0.00 | 0.00 | 0.00 | 69 | 1017.8 |
| 20260904141517 | 28 | 206 | 1.6 | 4.8 | 0.00 | 0.00 | 0.00 | 69 | 1017.8 |
| 20260904141017 | 28 | 144 | 1.6 | 3.2 | 0.00 | 0.00 | 0.00 | 71 | 1017.9 |
| 20260904140517 | 28 | 96 | 0.0 | 3.2 | 0.00 | 0.00 | 0.00 | 72 | 1017.9 |
| 20260904140017 | 28 | 112 | 1.6 | 6.4 | 0.00 | 0.00 | 0.00 | 72 | 1017.8 |
| 20260904135517 | 28 | 110 | 3.2 | 8.0 | 0.00 | 0.00 | 0.00 | 73 | 1017.8 |
| 20260904135017 | 27 | 120 | 4.8 | 4.8 | 0.00 | 0.00 | 0.00 | 75 | 1017.8 |
| 20260904134517 | 27 | 73 | 0.0 | 1.6 | 0.00 | 0.00 | 0.00 | 76 | 1017.9 |
| 20260904134017 | 27 | 75 | 0.0 | 3.2 | 0.00 | 0.00 | 0.00 | 76 | 1017.9 |
| 20260904133517 | 27 | 100 | 1.6 | 6.4 | 0.00 | 0.00 | 0.00 | 76 | 1017.9 |
| 20260904133017 | 27 | 103 | 1.6 | 4.8 | 0.00 | 0.00 | 0.00 | 77 | 1017.8 |
| 20260904132522 | 27 | 121 | 4.8 | 4.8 | 0.00 | 0.00 | 0.00 | 78 | 1017.8 |
| 20260904132016 | 27 | 89 | 1.6 | 4.8 | 0.00 | 0.00 | 0.00 | 78 | 1017.8 |
| 20260904131517 | 27 | 96 | 1.6 | 4.8 | 0.00 | 0.00 | 0.00 | 79 | 1017.8 |
| 20260904131017 | 26 | 78 | 0.0 | 6.4 | 0.00 | 0.00 | 0.00 | 80 | 1017.8 |
| 20260904130517 | 26 | 73 | 3.2 | 6.4 | 0.00 | 0.00 | 0.00 | 81 | 1017.8 |
| 20260904130017 | 26 | 59 | 3.2 | 3.2 | 0.00 | 0.00 | 0.00 | 83 | 1017.8 |
| 20260904125517 | 26 | 92 | 0.0 | 4.8 | 0.00 | 0.00 | 0.00 | 83 | 1017.6 |
| 20260904125018 | 26 | 110 | 1.6 | 3.2 | 0.00 | 0.00 | 0.00 | 84 | 1017.6 |
| 20260904124517 | 25 | 48 | 1.6 | 3.2 | 0.00 | 0.00 | 0.00 | 85 | 1017.6 |
| 20260904124017 | 25 | 109 | 1.6 | 8.0 | 0.00 | 0.00 | 0.00 | 86 | 1017.6 |
| 20260904123517 | 25 | 107 | 1.6 | 4.8 | 0.00 | 0.00 | 0.00 | 86 | 1017.6 |
| 20260904123017 | 25 | 97 | 1.6 | 6.4 | 0.00 | 0.00 | 0.00 | 87 | 1017.5 |
| 20260904122517 | 25 | 72 | 3.2 | 3.2 | 0.00 | 0.00 | 0.00 | 88 | 1017.4 |
| 20260904122016 | 25 | 0 | 0.0 | 0.0 | 0.00 | 0.00 | 0.00 | 88 | 1017.4 |
| 20260904121517 | 25 | 0 | 0.0 | 0.0 | 0.00 | 0.00 | 0.00 | 88 | 1017.3 |
| 20260904121017 | 25 | 0 | 0.0 | 0.0 | 0.00 | 0.00 | 0.00 | 88 | 1017.3 |
| 20260904120517 | 25 | 0 | 0.0 | 0.0 | 0.00 | 0.00 | 0.00 | 88 | 1017.3 |
| 20260904120017 | 25 | 0 | 0.0 | 0.0 | 0.00 | 0.00 | 0.00 | 88 | 1017.2 |
| 20260904115517 | 24 | 0 | 0.0 | 0.0 | 0.00 | 0.00 | 0.00 | 88 | 1017.2 |
| 20260904115017 | 24 | 0 | 0.0 | 0.0 | 0.00 | 0.00 | 0.00 | 88 | 1017.1 |
| 20260904114517 | 25 | 0 | 0.0 | 0.0 | 0.00 | 0.00 | 0.00 | 88 | 1017.1 |
| 20260904114017 | 25 | 315 | 0.0 | 4.8 | 0.00 | 0.00 | 0.00 | 88 | 1017.2 |
| 20260904113517 | 25 | 0 | 0.0 | 0.0 | 0.00 | 0.00 | 0.00 | 88 | 1017.1 |
| 20260904113017 | 25 | 0 | 0.0 | 0.0 | 0.00 | 0.00 | 0.00 | 88 | 1017.1 |
| 20260904112518 | 25 | 0 | 0.0 | 0.0 | 0.00 | 0.00 | 0.00 | 87 | 1017.0 |
| 20260904112017 | 25 | 0 | 0.0 | 0.0 | 0.00 | 0.00 | 0.00 | 87 | 1017.0 |
| 20260904111516 | 25 | 0 | 0.0 | 0.0 | 0.00 | 0.00 | 0.00 | 87 | 1016.9 |
| 20260904111017 | 25 | 0 | 0.0 | 0.0 | 0.00 | 0.00 | 0.00 | 87 | 1016.9 |
| 20260904110517 | 25 | 0 | 0.0 | 0.0 | 0.00 | 0.00 | 0.00 | 87 | 1016.8 |
| 20260904110017 | 25 | 0 | 0.0 | 0.0 | 0.00 | 0.00 | 0.00 | 87 | 1016.8 |
| 20260904105517 | 25 | 0 | 0.0 | 0.0 | 0.00 | 0.00 | 0.00 | 87 | 1016.7 |
| 20260904105017 | 25 | 0 | 0.0 | 0.0 | 0.00 | 0.00 | 0.00 | 86 | 1016.7 |
| 20260904104516 | 25 | 0 | 0.0 | 0.0 | 0.00 | 0.00 | 0.00 | 86 | 1016.6 |
| 20260904104018 | 25 | 0 | 0.0 | 0.0 | 0.00 | 0.00 | 0.00 | 86 | 1016.7 |
| 20260904103517 | 25 | 0 | 0.0 | 0.0 | 0.00 | 0.00 | 0.00 | 86 | 1016.7 |
| 20260904103017 | 25 | 0 | 0.0 | 0.0 | 0.00 | 0.00 | 0.00 | 86 | 1016.7 |
| 20260904102517 | 25 | 0 | 0.0 | 0.0 | 0.00 | 0.00 | 0.00 | 86 | 1016.6 |
| 20260904102017 | 25 | 0 | 0.0 | 0.0 | 0.00 | 0.00 | 0.00 | 86 | 1016.6 |
| 20260904101517 | 25 | 0 | 0.0 | 0.0 | 0.00 | 0.00 | 0.00 | 86 | 1016.6 |
| 20260904101017 | 25 | 0 | 0.0 | 0.0 | 0.00 | 0.00 | 0.00 | 85 | 1016.6 |
| 20260904100517 | 25 | 0 | 0.0 | 0.0 | 0.00 | 0.00 | 0.00 | 85 | 1016.5 |
| 20260904100017 | 25 | 0 | 0.0 | 0.0 | 0.00 | 0.00 | 0.00 | 85 | 1016.5 |
| 20260904095518 | 25 | 0 | 0.0 | 0.0 | 0.00 | 0.00 | 0.00 | 85 | 1016.5 |
| 20260904095017 | 25 | 0 | 0.0 | 0.0 | 0.00 | 0.00 | 0.00 | 85 | 1016.5 |
| 20260904094517 | 25 | 0 | 0.0 | 0.0 | 0.00 | 0.00 | 0.00 | 85 | 1016.5 |
| 20260904094017 | 25 | 0 | 0.0 | 0.0 | 0.00 | 0.00 | 0.00 | 85 | 1016.4 |
| 20260904093517 | 25 | 0 | 0.0 | 0.0 | 0.00 | 0.00 | 0.00 | 85 | 1016.4 |
| 20260904093017 | 25 | 0 | 0.0 | 0.0 | 0.00 | 0.00 | 0.00 | 84 | 1016.4 |
| 20260904092517 | 25 | 0 | 0.0 | 0.0 | 0.00 | 0.00 | 0.00 | 84 | 1016.4 |
| 20260904092018 | 25 | 0 | 0.0 | 0.0 | 0.00 | 0.00 | 0.00 | 84 | 1016.4 |
| 20260904091517 | 26 | 0 | 0.0 | 0.0 | 0.00 | 0.00 | 0.00 | 84 | 1016.4 |
| 20260904091017 | 26 | 0 | 0.0 | 0.0 | 0.00 | 0.00 | 0.00 | 84 | 1016.4 |
| 20260904090518 | 26 | 0 | 0.0 | 0.0 | 0.00 | 0.00 | 0.00 | 84 | 1016.5 |
| 20260904090017 | 26 | 0 | 0.0 | 0.0 | 0.00 | 0.00 | 0.00 | 84 | 1016.5 |
| 20260904085517 | 26 | 0 | 0.0 | 0.0 | 0.00 | 0.00 | 0.00 | 84 | 1016.5 |
| 20260904085017 | 26 | 0 | 0.0 | 0.0 | 0.00 | 0.00 | 0.00 | 83 | 1016.4 |
| 20260904084517 | 26 | 0 | 0.0 | 0.0 | 0.00 | 0.00 | 0.00 | 83 | 1016.4 |
| 20260904084017 | 26 | 0 | 0.0 | 0.0 | 0.00 | 0.00 | 0.00 | 83 | 1016.4 |
| 20260904083517 | 26 | 0 | 0.0 | 0.0 | 0.00 | 0.00 | 0.00 | 83 | 1016.4 |
| 20260904083017 | 26 | 0 | 0.0 | 0.0 | 0.00 | 0.00 | 0.00 | 83 | 1016.5 |
| 20260904082517 | 26 | 0 | 0.0 | 0.0 | 0.00 | 0.00 | 0.00 | 82 | 1016.5 |
| 20260904082017 | 26 | 0 | 0.0 | 0.0 | 0.00 | 0.00 | 0.00 | 82 | 1016.5 |
| 20260904081518 | 26 | 0 | 0.0 | 0.0 | 0.00 | 0.00 | 0.00 | 82 | 1016.5 |
| 20260904081017 | 26 | 0 | 0.0 | 0.0 | 0.00 | 0.00 | 0.00 | 82 | 1016.5 |
| 20260904080517 | 26 | 0 | 0.0 | 0.0 | 0.00 | 0.00 | 0.00 | 82 | 1016.6 |
| 20260904080017 | 26 | 0 | 0.0 | 0.0 | 0.00 | 0.00 | 0.00 | 81 | 1016.6 |
| 20260904075517 | 26 | 0 | 0.0 | 0.0 | 0.00 | 0.00 | 0.00 | 81 | 1016.5 |
| 20260904075017 | 26 | 0 | 0.0 | 0.0 | 0.00 | 0.00 | 0.00 | 81 | 1016.6 |
| 20260904074518 | 26 | 0 | 0.0 | 0.0 | 0.00 | 0.00 | 0.00 | 80 | 1016.6 |
| 20260904074017 | 26 | 0 | 0.0 | 0.0 | 0.00 | 0.00 | 0.00 | 80 | 1016.6 |
| 20260904073517 | 27 | 0 | 0.0 | 0.0 | 0.00 | 0.00 | 0.00 | 80 | 1016.7 |
| 20260904073017 | 27 | 0 | 0.0 | 0.0 | 0.00 | 0.00 | 0.00 | 80 | 1016.7 |
| 20260904072517 | 26 | 0 | 0.0 | 0.0 | 0.00 | 0.00 | 0.00 | 80 | 1016.6 |
| 20260904072017 | 26 | 0 | 0.0 | 0.0 | 0.00 | 0.00 | 0.00 | 80 | 1016.6 |
| 20260904071517 | 26 | 35 | 0.0 | 1.6 | 0.00 | 0.00 | 0.00 | 80 | 1016.6 |
| 20260904071017 | 26 | 0 | 0.0 | 0.0 | 0.00 | 0.00 | 0.00 | 80 | 1016.5 |
| 20260904070517 | 26 | 95 | 0.0 | 4.8 | 0.00 | 0.00 | 0.00 | 80 | 1016.5 |
| 20260904070017 | 26 | 88 | 0.0 | 4.8 | 0.00 | 0.00 | 0.00 | 80 | 1016.5 |
| 20260904065517 | 26 | 126 | 1.6 | 3.2 | 0.00 | 0.00 | 0.00 | 80 | 1016.5 |
| 20260904065017 | 27 | 136 | 0.0 | 3.2 | 0.00 | 0.00 | 0.00 | 80 | 1016.6 |
| 20260904064517 | 26 | 88 | 3.2 | 4.8 | 0.00 | 0.00 | 0.00 | 80 | 1016.5 |
| 20260904064017 | 26 | 97 | 1.6 | 8.0 | 0.00 | 0.00 | 0.00 | 81 | 1016.5 |
| 20260904063516 | 26 | 93 | 1.6 | 4.8 | 0.00 | 0.00 | 0.00 | 81 | 1016.6 |
| 20260904063017 | 26 | 75 | 0.0 | 3.2 | 0.00 | 0.00 | 0.00 | 81 | 1016.6 |
| 20260904062516 | 26 | 96 | 1.6 | 6.4 | 0.00 | 0.00 | 0.00 | 81 | 1016.7 |
| 20260904062017 | 26 | 52 | 0.0 | 1.6 | 0.00 | 0.00 | 0.00 | 82 | 1016.7 |
| 20260904061517 | 26 | 0 | 0.0 | 0.0 | 0.00 | 0.00 | 0.00 | 82 | 1016.7 |
| 20260904061017 | 26 | 0 | 0.0 | 0.0 | 0.00 | 0.00 | 0.00 | 82 | 1016.6 |
| 20260904060517 | 26 | 0 | 0.0 | 0.0 | 0.00 | 0.00 | 0.00 | 82 | 1016.7 |
| 20260904060017 | 26 | 0 | 0.0 | 0.0 | 0.00 | 0.00 | 0.00 | 82 | 1016.7 |
| 20260904055518 | 26 | 0 | 0.0 | 0.0 | 0.00 | 0.00 | 0.00 | 82 | 1016.7 |
| 20260904055017 | 26 | 0 | 0.0 | 0.0 | 0.00 | 0.00 | 0.00 | 81 | 1016.7 |
| 20260904054517 | 27 | 0 | 0.0 | 0.0 | 0.00 | 0.00 | 0.00 | 81 | 1016.7 |
| 20260904054017 | 27 | 0 | 0.0 | 0.0 | 0.00 | 0.00 | 0.00 | 81 | 1016.6 |
| 20260904053517 | 27 | 0 | 0.0 | 0.0 | 0.00 | 0.00 | 0.00 | 81 | 1016.7 |
| 20260904053017 | 26 | 0 | 0.0 | 0.0 | 0.00 | 0.00 | 0.00 | 81 | 1016.7 |
| 20260904052516 | 27 | 0 | 0.0 | 0.0 | 0.00 | 0.00 | 0.00 | 80 | 1016.8 |
| 20260904052017 | 27 | 0 | 0.0 | 0.0 | 0.00 | 0.00 | 0.00 | 80 | 1016.9 |
| 20260904051517 | 27 | 0 | 0.0 | 0.0 | 0.00 | 0.00 | 0.00 | 80 | 1016.8 |
| 20260904051017 | 27 | 0 | 0.0 | 0.0 | 0.00 | 0.00 | 0.00 | 79 | 1016.7 |
| 20260904050517 | 27 | 0 | 0.0 | 0.0 | 0.00 | 0.00 | 0.00 | 79 | 1016.7 |
| 20260904050017 | 27 | 0 | 0.0 | 0.0 | 0.00 | 0.00 | 0.00 | 78 | 1016.7 |
| 20260904045517 | 27 | 0 | 0.0 | 0.0 | 0.00 | 0.00 | 0.00 | 78 | 1016.7 |
| 20260904045017 | 27 | 0 | 0.0 | 0.0 | 0.00 | 0.00 | 0.00 | 78 | 1016.8 |
| 20260904044517 | 27 | 0 | 0.0 | 0.0 | 0.00 | 0.00 | 0.00 | 77 | 1016.7 |
| 20260904044017 | 27 | 0 | 0.0 | 0.0 | 0.00 | 0.00 | 0.00 | 77 | 1016.7 |
| 20260904043517 | 27 | 0 | 0.0 | 0.0 | 0.00 | 0.00 | 0.00 | 77 | 1016.7 |
| 20260904043017 | 27 | 0 | 0.0 | 0.0 | 0.00 | 0.00 | 0.00 | 76 | 1016.6 |
| 20260904042518 | 27 | 0 | 0.0 | 0.0 | 0.00 | 0.00 | 0.00 | 76 | 1016.7 |
| 20260904042017 | 28 | 0 | 0.0 | 0.0 | 0.00 | 0.00 | 0.00 | 76 | 1016.8 |
| 20260904041517 | 27 | 0 | 0.0 | 0.0 | 0.00 | 0.00 | 0.00 | 75 | 1016.8 |
| 20260904041017 | 28 | 0 | 0.0 | 0.0 | 0.00 | 0.00 | 0.00 | 75 | 1016.9 |
| 20260904040517 | 28 | 0 | 0.0 | 0.0 | 0.00 | 0.00 | 0.00 | 75 | 1016.8 |
| 20260904040017 | 28 | 0 | 0.0 | 0.0 | 0.00 | 0.00 | 0.00 | 74 | 1016.8 |
| 20260904035518 | 28 | 0 | 0.0 | 0.0 | 0.00 | 0.00 | 0.00 | 74 | 1016.9 |
| 20260904035017 | 28 | 0 | 0.0 | 0.0 | 0.00 | 0.00 | 0.00 | 73 | 1016.8 |
| 20260904034518 | 28 | 0 | 0.0 | 0.0 | 0.00 | 0.00 | 0.00 | 73 | 1016.8 |
| 20260904034017 | 28 | 0 | 0.0 | 0.0 | 0.00 | 0.00 | 0.00 | 72 | 1016.8 |
| 20260904033517 | 28 | 0 | 0.0 | 0.0 | 0.00 | 0.00 | 0.00 | 72 | 1016.9 |
| 20260904033017 | 28 | 0 | 0.0 | 0.0 | 0.00 | 0.00 | 0.00 | 72 | 1016.9 |
| 20260904032517 | 28 | 0 | 0.0 | 0.0 | 0.00 | 0.00 | 0.00 | 71 | 1016.9 |
| 20260904032018 | 28 | 0 | 0.0 | 0.0 | 0.00 | 0.00 | 0.00 | 71 | 1016.9 |
| 20260904031517 | 28 | 116 | 0.0 | 3.2 | 0.00 | 0.00 | 0.00 | 72 | 1016.9 |
| 20260904031017 | 28 | 0 | 0.0 | 0.0 | 0.00 | 0.00 | 0.00 | 72 | 1016.8 |
| 20260904030518 | 28 | 0 | 0.0 | 0.0 | 0.00 | 0.00 | 0.00 | 72 | 1016.8 |
| 20260904030017 | 28 | 0 | 0.0 | 0.0 | 0.00 | 0.00 | 0.00 | 72 | 1016.9 |
| 20260904025517 | 28 | 0 | 0.0 | 0.0 | 0.00 | 0.00 | 0.00 | 71 | 1016.9 |
| 20260904025017 | 28 | 0 | 0.0 | 0.0 | 0.00 | 0.00 | 0.00 | 71 | 1017.0 |
| 20260904024517 | 28 | 0 | 0.0 | 0.0 | 0.00 | 0.00 | 0.00 | 70 | 1017.0 |
| 20260904024017 | 28 | 0 | 0.0 | 0.0 | 0.00 | 0.00 | 0.00 | 70 | 1017.0 |
| 20260904023517 | 28 | 0 | 0.0 | 0.0 | 0.00 | 0.00 | 0.00 | 70 | 1017.0 |
| 20260904023017 | 28 | 90 | 0.0 | 1.6 | 0.00 | 0.00 | 0.00 | 70 | 1017.0 |
| 20260904022517 | 28 | 82 | 0.0 | 3.2 | 0.00 | 0.00 | 0.00 | 70 | 1016.9 |
| 20260904022017 | 29 | 0 | 0.0 | 0.0 | 0.00 | 0.00 | 0.00 | 70 | 1016.9 |
| 20260904021517 | 29 | 0 | 0.0 | 0.0 | 0.00 | 0.00 | 0.00 | 69 | 1016.9 |
| 20260904021017 | 29 | 212 | 0.0 | 1.6 | 0.00 | 0.00 | 0.00 | 70 | 1016.8 |
| 20260904020517 | 29 | 226 | 0.0 | 1.6 | 0.00 | 0.00 | 0.00 | 69 | 1016.8 |
| 20260904020018 | 29 | 0 | 0.0 | 0.0 | 0.00 | 0.00 | 0.00 | 69 | 1016.7 |
| 20260904015517 | 29 | 0 | 0.0 | 0.0 | 0.00 | 0.00 | 0.00 | 69 | 1016.7 |
| 20260904015017 | 29 | 0 | 0.0 | 0.0 | 0.00 | 0.00 | 0.00 | 68 | 1016.7 |
| 20260904014517 | 29 | 0 | 0.0 | 0.0 | 0.00 | 0.00 | 0.00 | 68 | 1016.7 |
| 20260904014018 | 30 | 0 | 0.0 | 0.0 | 0.00 | 0.00 | 0.00 | 67 | 1016.6 |
| 20260904013517 | 30 | 0 | 0.0 | 0.0 | 0.00 | 0.00 | 0.00 | 67 | 1016.5 |
| 20260904013017 | 30 | 0 | 0.0 | 0.0 | 0.00 | 0.00 | 0.00 | 66 | 1016.5 |
| 20260904012518 | 30 | 0 | 0.0 | 0.0 | 0.00 | 0.00 | 0.00 | 66 | 1016.4 |
| 20260904012017 | 30 | 0 | 0.0 | 0.0 | 0.00 | 0.00 | 0.00 | 65 | 1016.4 |
| 20260904011517 | 30 | 0 | 0.0 | 0.0 | 0.00 | 0.00 | 0.00 | 64 | 1016.4 |
| 20260904011017 | 30 | 0 | 0.0 | 0.0 | 0.00 | 0.00 | 0.00 | 64 | 1016.4 |
| 20260904010517 | 30 | 0 | 0.0 | 0.0 | 0.00 | 0.00 | 0.00 | 64 | 1016.2 |
| 20260904010017 | 30 | 0 | 0.0 | 0.0 | 0.00 | 0.00 | 0.00 | 63 | 1016.2 |
| 20260904005517 | 31 | 0 | 0.0 | 0.0 | 0.00 | 0.00 | 0.00 | 63 | 1016.1 |
| 20260904005017 | 31 | 0 | 0.0 | 0.0 | 0.00 | 0.00 | 0.00 | 62 | 1016.1 |
| 20260904004517 | 31 | 0 | 0.0 | 0.0 | 0.00 | 0.00 | 0.00 | 61 | 1016.1 |
| 20260904004017 | 31 | 0 | 0.0 | 0.0 | 0.00 | 0.00 | 0.00 | 60 | 1016.1 |
| 20260904003517 | 31 | 0 | 0.0 | 0.0 | 0.00 | 0.00 | 0.00 | 59 | 1016.1 |
| 20260904003016 | 31 | 0 | 0.0 | 0.0 | 0.00 | 0.00 | 0.00 | 59 | 1016.0 |
| 20260904002517 | 31 | 0 | 0.0 | 0.0 | 0.00 | 0.00 | 0.00 | 58 | 1016.0 |
| 20260904002017 | 32 | 209 | 0.0 | 1.6 | 0.00 | 0.00 | 0.00 | 58 | 1015.8 |
| 20260904001517 | 31 | 241 | 0.0 | 6.4 | 0.00 | 0.00 | 0.00 | 58 | 1015.8 |
| 20260904001017 | 31 | 0 | 0.0 | 0.0 | 0.00 | 0.00 | 0.00 | 59 | 1015.8 |
| 20260904000517 | 31 | 0 | 0.0 | 0.0 | 0.00 | 0.00 | 0.00 | 59 | 1015.7 |
| 20260904000017 | 31 | 0 | 0.0 | 0.0 | 0.00 | 0.00 | 0.00 | 58 | 1015.7 |
| 20260903235517 | 32 | 0 | 0.0 | 0.0 | 0.00 | 0.00 | 0.00 | 58 | 1015.7 |
| 20260903235017 | 32 | 0 | 0.0 | 0.0 | 0.00 | 0.00 | 0.00 | 57 | 1015.6 |
| 20260903234516 | 32 | 0 | 0.0 | 0.0 | 0.00 | 0.00 | 0.00 | 56 | 1015.6 |
| 20260903234017 | 32 | 0 | 0.0 | 0.0 | 0.00 | 0.00 | 0.00 | 56 | 1015.5 |
| 20260903233517 | 32 | 0 | 0.0 | 0.0 | 0.00 | 0.00 | 0.00 | 56 | 1015.5 |
| 20260903233017 | 32 | 0 | 0.0 | 0.0 | 0.00 | 0.00 | 0.00 | 55 | 1015.6 |
| 20260903232517 | 32 | 0 | 0.0 | 0.0 | 0.00 | 0.00 | 0.00 | 55 | 1015.6 |
| 20260903232018 | 33 | 0 | 0.0 | 0.0 | 0.00 | 0.00 | 0.00 | 55 | 1015.5 |
| 20260903231517 | 33 | 0 | 0.0 | 0.0 | 0.00 | 0.00 | 0.00 | 54 | 1015.5 |
| 20260903231017 | 33 | 120 | 0.0 | 3.2 | 0.00 | 0.00 | 0.00 | 53 | 1015.6 |
| 20260903230517 | 33 | 0 | 0.0 | 0.0 | 0.00 | 0.00 | 0.00 | 54 | 1015.6 |
| 20260903230017 | 33 | 45 | 0.0 | 1.6 | 0.00 | 0.00 | 0.00 | 53 | 1015.5 |
| 20260903225517 | 33 | 90 | 0.0 | 4.8 | 0.00 | 0.00 | 0.00 | 52 | 1015.4 |
| 20260903225017 | 33 | 97 | 0.0 | 3.2 | 0.00 | 0.00 | 0.00 | 51 | 1015.4 |
| 20260903224517 | 33 | 0 | 1.6 | 0.0 | 0.00 | 0.00 | 0.00 | 50 | 1015.3 |
| 20260903224017 | 34 | 102 | 0.0 | 4.8 | 0.00 | 0.00 | 0.00 | 49 | 1015.3 |
| 20260903223517 | 34 | 93 | 0.0 | 1.6 | 0.00 | 0.00 | 0.00 | 48 | 1015.3 |
| 20260903223017 | 35 | 64 | 0.0 | 9.7 | 0.00 | 0.00 | 0.00 | 47 | 1015.4 |
| 20260903222517 | 35 | 82 | 3.2 | 8.0 | 0.00 | 0.00 | 0.00 | 46 | 1015.4 |
| 20260903222018 | 35 | 65 | 0.0 | 9.7 | 0.00 | 0.00 | 0.00 | 47 | 1015.3 |